Franklin, PA

7:33 PM EDT on August 28, 2016 (GMT -0400)
Venango Regional

Weather History for KFKL - January, 2014

Change the Weather History Date:

Sunday, January 26, 2014

  Actual Average Record
Temperature  
Mean Temperature 16 °F -  
Max Temperature 32 °F 34 °F 73 °F (1950)
Min Temperature 3 °F 16 °F -14 °F (1945)
Degree Days  
Heating Degree Days 48    
Moisture  
Dew Point 5 °F    
Average Humidity 76    
Maximum Humidity 85    
Minimum Humidity 64    
Precipitation  
Precipitation 0.00 in - - ()
Sea Level Pressure  
Sea Level Pressure 29.61 in    
Wind  
Wind Speed 11 mph (SSW)    
Max Wind Speed 18 mph    
Max Gust Speed 23 mph    
Visibility 8 miles    
Events      
Averages and records for this station are not official NWS values.
T = Trace of Precipitation, MM = Missing Value Source: NWS Daily Summary

Daily Weather History Graph

Daily Weather History Graph

Search for Another Location

Airport or City:

Trip Planner

Search our weather history database for the weather conditions in past years. The results will help you decide how hot, cold, wet, or windy it might be!

Date:

Astronomy

Jan. 26, 2014 Rise Set
Actual Time 7:36 AM EST 5:28 PM EST
Civil Twilight 7:06 AM EST 5:57 PM EST
Nautical Twilight 6:33 AM EST 6:31 PM EST
Astronomical Twilight 6:00 AM EST 7:04 PM EST
Moon 3:12 AM EST (1/26) 1:15 PM EST (1/26)
Length of Visible Light 10h 51m
Length of Day
9h 51m
Waning Crescent, 24% of the Moon is Illuminated
Jan 26
Waning Crescent
Jan 30
New
Feb 6
First Quarter
Feb 14
Full
Feb 22
Last Quarter

Hourly Weather History & Observations

Time (EST) Temp. Windchill Dew Point Humidity Pressure Visibility Wind Dir Wind Speed Gust Speed Precip Events Conditions
12:15 AM 8.6 °F -8.3 °F -0.4 °F 67% 29.64 in 10.0 mi West 15.0 mph 18.4 mph N/A   Partly Cloudy
12:35 AM 6.8 °F -7.8 °F -0.4 °F 72% 29.65 in 10.0 mi West 10.4 mph 19.6 mph N/A   Mostly Cloudy
12:55 AM 6.8 °F -9.3 °F -0.4 °F 72% 29.66 in 10.0 mi WNW 12.7 mph 23.0 mph N/A   Mostly Cloudy
1:15 AM 6.8 °F -8.6 °F -0.4 °F 72% 29.67 in 10.0 mi WNW 11.5 mph 18.4 mph N/A   Mostly Cloudy
1:35 AM 6.8 °F -8.6 °F -0.4 °F 72% 29.67 in 10.0 mi West 11.5 mph 16.1 mph N/A   Overcast
1:55 AM 6.8 °F -7.8 °F -0.4 °F 72% 29.68 in 10.0 mi West 10.4 mph 16.1 mph N/A   Mostly Cloudy
2:15 AM 5.0 °F -6.9 °F -0.4 °F 78% 29.69 in 10.0 mi West 6.9 mph - N/A   Scattered Clouds
2:35 AM 3.2 °F -9.1 °F -2.2 °F 78% 29.69 in 10.0 mi West 6.9 mph - N/A   Partly Cloudy
2:55 AM 3.2 °F -9.1 °F -0.4 °F 85% 29.70 in 10.0 mi West 6.9 mph - N/A   Clear
3:15 AM 3.2 °F -10.3 °F -2.2 °F 78% 29.71 in 10.0 mi West 8.1 mph - N/A   Clear
3:35 AM 3.2 °F -9.1 °F -2.2 °F 78% 29.71 in 10.0 mi WSW 6.9 mph - N/A   Scattered Clouds
3:55 AM 3.2 °F -7.8 °F -2.2 °F 78% 29.71 in 7.0 mi WSW 5.8 mph - N/A   Overcast
4:15 AM 3.2 °F -9.1 °F -2.2 °F 78% 29.71 in 8.0 mi SW 6.9 mph - N/A   Overcast
4:35 AM 3.2 °F -7.8 °F -0.4 °F 85% 29.71 in 4.0 mi WSW 5.8 mph - N/A   Overcast
4:55 AM 3.2 °F -6.2 °F -2.2 °F 78% 29.71 in 2.5 mi SW 4.6 mph - N/A   Overcast
5:15 AM 3.2 °F -7.8 °F -0.4 °F 85% 29.72 in 4.0 mi SW 5.8 mph - N/A   Overcast
5:35 AM 3.2 °F -7.8 °F -0.4 °F 85% 29.71 in 10.0 mi SSW 5.8 mph - N/A   Mostly Cloudy
5:55 AM 3.2 °F -9.1 °F -2.2 °F 78% 29.71 in 10.0 mi SSW 6.9 mph - N/A   Scattered Clouds
6:15 AM 3.2 °F -9.1 °F -2.2 °F 78% 29.70 in 8.0 mi SW 6.9 mph - N/A   Scattered Clouds
6:35 AM 3.2 °F -9.1 °F -0.4 °F 85% 29.71 in 10.0 mi SW 6.9 mph - N/A   Clear
6:55 AM 3.2 °F -10.3 °F -2.2 °F 78% 29.72 in 10.0 mi SW 8.1 mph - N/A   Clear
7:15 AM 3.2 °F -10.3 °F -0.4 °F 85% 29.71 in 10.0 mi SW 8.1 mph - N/A   Clear
7:35 AM 3.2 °F -10.3 °F -0.4 °F 85% 29.71 in 10.0 mi SW 8.1 mph - N/A   Clear
7:55 AM 3.2 °F -10.3 °F -0.4 °F 85% 29.70 in 10.0 mi SW 8.1 mph - N/A   Clear
8:15 AM 3.2 °F -11.3 °F -2.2 °F 78% 29.70 in 10.0 mi SW 9.2 mph - N/A   Clear
8:35 AM 5.0 °F -10.0 °F 1.4 °F 85% 29.71 in 10.0 mi SW 10.4 mph - N/A   Clear
8:55 AM 5.0 °F -12.3 °F -0.4 °F 78% 29.70 in 10.0 mi SSW 13.8 mph 17.3 mph N/A   Clear
9:15 AM 6.8 °F -7.8 °F -0.4 °F 72% 29.69 in 10.0 mi SSW 10.4 mph - N/A   Scattered Clouds
9:35 AM 6.8 °F -6.9 °F -0.4 °F 72% 29.68 in 10.0 mi SSW 9.2 mph - N/A   Mostly Cloudy
9:55 AM 6.8 °F -10.0 °F -0.4 °F 72% 29.68 in 10.0 mi SSW 13.8 mph - N/A   Overcast
10:15 AM 6.8 °F -9.3 °F -2.2 °F 67% 29.68 in 10.0 mi SSW 12.7 mph 18.4 mph N/A   Overcast
10:35 AM 6.8 °F -9.3 °F -0.4 °F 72% 29.68 in 1.8 mi SSW 12.7 mph 16.1 mph N/A   Overcast
10:55 AM 6.8 °F -8.6 °F 1.4 °F 79% 29.66 in 3.0 mi South 11.5 mph - N/A   Overcast
11:15 AM 6.8 °F -10.0 °F 1.4 °F 79% 29.66 in 2.5 mi SSW 13.8 mph - N/A   Overcast
11:35 AM 6.8 °F -11.3 °F 1.4 °F 79% 29.65 in 1.5 mi South 16.1 mph - N/A   Overcast
11:55 AM 8.6 °F -7.7 °F 1.4 °F 73% 29.63 in 1.8 mi South 13.8 mph - N/A   Overcast
12:15 PM 8.6 °F -8.3 °F 3.2 °F 79% 29.63 in 1.8 mi SSW 15.0 mph 18.4 mph N/A   Overcast
12:35 PM 8.6 °F -7.7 °F 3.2 °F 79% 29.63 in 2.5 mi South 13.8 mph - N/A   Overcast
12:55 PM 10.4 °F -6.0 °F 3.2 °F 73% 29.59 in 2.5 mi South 15.0 mph - N/A   Overcast
1:15 PM 10.4 °F -5.4 °F 3.2 °F 73% 29.59 in 2.5 mi South 13.8 mph - N/A   Overcast
1:35 PM 10.4 °F -5.4 °F 5.0 °F 79% 29.57 in 2.5 mi South 13.8 mph 21.9 mph N/A   Overcast
1:55 PM 12.2 °F -3.7 °F 6.8 °F 79% 29.56 in 5.0 mi South 15.0 mph 19.6 mph N/A   Overcast
2:15 PM 12.2 °F -2.5 °F 5.0 °F 73% 29.56 in 7.0 mi SSE 12.7 mph - N/A   Overcast
2:35 PM 12.2 °F -4.3 °F 6.8 °F 79% 29.54 in 5.0 mi South 16.1 mph 23.0 mph N/A   Overcast
2:55 PM 12.2 °F -3.1 °F 6.8 °F 79% 29.54 in 5.0 mi South 13.8 mph - N/A   Overcast
3:15 PM 12.2 °F -2.5 °F 8.6 °F 85% 29.54 in 4.0 mi South 12.7 mph 19.6 mph N/A   Overcast
3:35 PM 12.2 °F -1.8 °F 8.6 °F 85% 29.53 in 3.0 mi South 11.5 mph 19.6 mph N/A   Overcast
3:55 PM 14.0 °F -2.5 °F 8.6 °F 79% 29.54 in 7.0 mi South 17.3 mph 20.7 mph N/A   Overcast
4:15 PM 14.0 °F -0.2 °F 8.6 °F 79% 29.53 in 10.0 mi South 12.7 mph 17.3 mph N/A   Overcast
4:35 PM 15.8 °F 1.4 °F 10.4 °F 79% 29.52 in 2.0 mi South 13.8 mph - N/A   Overcast
4:55 PM 15.8 °F 2.1 °F 8.6 °F 73% 29.51 in 10.0 mi South 12.7 mph 21.9 mph N/A   Overcast
5:15 PM 15.8 °F 0.9 °F 10.4 °F 79% 29.51 in 10.0 mi South 15.0 mph 19.6 mph N/A   Overcast
5:35 PM 15.8 °F 0.9 °F 10.4 °F 79% 29.51 in 10.0 mi South 15.0 mph - N/A   Overcast
5:55 PM 17.6 °F 4.3 °F 10.4 °F 73% 29.51 in 10.0 mi South 12.7 mph - N/A   Overcast
6:15 PM 17.6 °F 3.7 °F 10.4 °F 73% 29.52 in 10.0 mi South 13.8 mph - N/A   Overcast
6:35 PM 17.6 °F 1.7 °F 10.4 °F 73% 29.52 in 10.0 mi South 18.4 mph - N/A   Overcast
6:55 PM 19.4 °F 5.0 °F 10.4 °F 68% 29.53 in 10.0 mi South 16.1 mph 23.0 mph N/A   Overcast
7:15 PM 19.4 °F 6.0 °F 12.2 °F 74% 29.54 in 10.0 mi South 13.8 mph - N/A   Overcast
7:35 PM 19.4 °F 6.6 °F 12.2 °F 74% 29.54 in 10.0 mi South 12.7 mph - N/A   Overcast
7:55 PM 21.2 °F 10.1 °F 12.2 °F 68% 29.54 in 10.0 mi SSW 10.4 mph 17.3 mph N/A   Overcast
8:15 PM 21.2 °F 8.9 °F 14.0 °F 74% 29.54 in 10.0 mi SSW 12.7 mph - N/A   Overcast
8:35 PM 24.8 °F 14.6 °F 15.8 °F 69% 29.54 in 10.0 mi SSW 10.4 mph - N/A   Overcast
8:55 PM 24.8 °F 15.3 °F 15.8 °F 69% 29.54 in 10.0 mi SW 9.2 mph - N/A   Overcast
9:15 PM 26.6 °F 16.8 °F 15.8 °F 64% 29.53 in 10.0 mi SW 10.4 mph - N/A   Overcast
9:35 PM 26.6 °F 16.8 °F 17.6 °F 69% 29.53 in 10.0 mi SSW 10.4 mph 19.6 mph N/A   Overcast
9:55 PM 28.4 °F 19.7 °F 19.4 °F 69% 29.52 in 10.0 mi SW 9.2 mph 17.3 mph N/A   Overcast
10:15 PM 28.4 °F 17.5 °F 19.4 °F 69% 29.52 in 10.0 mi SW 13.8 mph 20.7 mph N/A   Overcast
10:35 PM 28.4 °F 18.0 °F 19.4 °F 69% 29.52 in 10.0 mi SW 12.7 mph 18.4 mph N/A   Scattered Clouds
10:55 PM 30.2 °F 20.2 °F 19.4 °F 64% 29.50 in 10.0 mi SSW 12.7 mph 17.3 mph N/A   Clear
11:15 PM 30.2 °F 20.2 °F 21.2 °F 69% 29.49 in 10.0 mi SW 12.7 mph 19.6 mph N/A   Partly Cloudy
11:35 PM 30.2 °F 19.3 °F 23.0 °F 75% 29.48 in 10.0 mi SSW 15.0 mph 23.0 mph N/A   Mostly Cloudy
11:55 PM 32.0 °F 22.5 °F 23.0 °F 69% 29.46 in 10.0 mi SW 12.7 mph 21.9 mph N/A   Overcast